{"data":{"norad_id":62927,"intl_designator":"2025-027W","name":"STARLINK-32891","alt_names":[],"object_type":"PAYLOAD","status":"ACTIVE","operator":null,"country":"US","launch_date":"2025-02-08","launch_site_code":"AFETR","launch_vehicle":null,"mission":null,"orbit_class":"UNKNOWN","rcs_meters":null,"size_class":null,"mass_kg":null,"dimensions":null,"purposes":["comms"],"wikipedia_slug":null,"has_3d_model":false,"image_url":null,"decayed_at":null,"tle_current":{"epoch":"2026-05-25T03:40:52.654080Z","epoch_age_seconds":62124,"freshness":"FRESH","line1":"1 62927U 25027W   26145.15338720  .00017176  00000+0  63189-3 0  9990","line2":"2 62927  43.0035  57.2827 0001546 269.1922  90.8752 15.27598717 73352","mean_motion":15.27598717,"eccentricity":0.0001546,"inclination_deg":43.0035,"raan_deg":57.2827,"arg_perigee_deg":269.1922,"mean_anomaly_deg":90.8752,"bstar":0.00063189,"rev_number":7335,"period_min":94.265593704345,"perigee_km":481.93232047459003,"apogee_km":484.05378188641,"semimajor_km":6861.1300511805,"source":"CELESTRAK","updated_at":"2026-05-25T13:38:19.823682Z"}}}